Overview Statistics Trail Chart Weather Telemetry Raw packets
 

This is the latest recevied weather packets stored in our database for station/object KO6HRZ. If no packets are shown the sender has not sent any weather packets the latest 10 day(s).

<< 1 2 3 4 5 6 7 >>
Time Temp. Humidity Pressure Rain* Wind** Luminosity Snow
1788633191 24.44° C 54% 1013.4 hPa 0 mm - 558 W/m² -
1788632591 23.89° C 54% 1013.4 hPa 0 mm - 543 W/m² -
1788631986 23.89° C 55% 1013.3 hPa 0 mm - 535 W/m² -
1788631381 23.89° C 59% 1013.5 hPa 0 mm - 528 W/m² -
1788630776 22.78° C 60% 1013.3 hPa 0 mm - 510 W/m² -
1788630173 23.33° C 59% 1013.3 hPa 0 mm - 486 W/m² -
1788629571 22.78° C 62% 1013.3 hPa 0 mm - 463 W/m² -
1788628969 22.22° C 62% 1013.1 hPa 0 mm - 440 W/m² -
1788628367 22.22° C 63% 1013.3 hPa 0 mm - 413 W/m² -
1788627765 22.22° C 64% 1013.2 hPa 0 mm - 385 W/m² -
1788627160 21.11° C 68% 1013.1 hPa 0 mm - 361 W/m² -
1788626554 20° C 71% 1013 hPa 0 mm - 337 W/m² -
1788625973 19.44° C 73% 1013.3 hPa 0 mm - 306 W/m² -
1788625347 18.89° C 76% 1013 hPa 0 mm - 277 W/m² -
1788624747 18.33° C 77% 1013.2 hPa 0 mm - 253 W/m² -
1788624145 17.22° C 79% 1013.3 hPa 0 mm - 336 W/m² -
1788623545 16.67° C 82% 1013.3 hPa 0 mm - 258 W/m² -
1788622941 16.11° C 86% 1013.2 hPa 0 mm - 163 W/m² -
1788622338 15.56° C 87% 1013.5 hPa 0 mm - 51 W/m² -
1788621733 15° C 89% 1013.2 hPa 0 mm - 48 W/m² -
1788621129 13.89° C 90% 1013.3 hPa 0 mm - 45 W/m² -
1788620528 13.33° C 93% 1013.1 hPa 0 mm - 40 W/m² -
1788619927 12.78° C 94% 1013 hPa 0 mm - 38 W/m² -
1788619326 11.67° C 95% 1013.1 hPa 0 mm - 34 W/m² -
1788618726 11.67° C 95% 1013 hPa 0 mm - 30 W/m² -

* Rain latest hour (hover to see other rain measurements)
** Current wind speed in m/s (hover to see current wind gust speed)